Fort Stockton, TX

3:07 PM CST on December 06, 2016 (GMT -0600)
Fort Stockton-Pecos County

Weather History for KFST - March, 2014

Change the Weather History Date:

Tuesday, March 4, 2014

  Actual Average Record
Temperature  
Mean Temperature 47 °F -  
Max Temperature 66 °F 67 °F 91 °F (2009)
Min Temperature 28 °F 41 °F 26 °F (2002)
Degree Days  
Heating Degree Days 18    
Moisture  
Dew Point 22 °F    
Average Humidity 38    
Maximum Humidity 63    
Minimum Humidity 24    
Precipitation  
Precipitation 0.00 in - - ()
Sea Level Pressure  
Sea Level Pressure 29.95 in    
Wind  
Wind Speed 5 mph (SSE)    
Max Wind Speed 15 mph    
Max Gust Speed 21 mph    
Visibility 10 miles    
Events      
Averages and records for this station are not official NWS values.
T = Trace of Precipitation, MM = Missing Value Source: NWS Daily Summary

Daily Weather History Graph

Daily Weather History Graph

Search for Another Location

Airport or City:

Trip Planner

Search our weather history database for the weather conditions in past years. The results will help you decide how hot, cold, wet, or windy it might be!

Date:

Astronomy

Mar. 04, 2014 Rise Set
Actual Time 7:14 AM CST 6:52 PM CST
Civil Twilight 6:50 AM CST 7:16 PM CST
Nautical Twilight 6:22 AM CST 7:44 PM CST
Astronomical Twilight 5:54 AM CST 8:12 PM CST
Moon 9:18 AM CST (3/4) 10:43 PM CST (3/4)
Length of Visible Light 12h 26m
Length of Day
11h 37m
Waxing Crescent, 15% of the Moon is Illuminated
Mar 4
Waxing Crescent
Mar 8
First Quarter
Mar 16
Full
Mar 23
Last Quarter
Mar 30
New

Hourly Weather History & Observations

Time (CST) Temp. Windchill Dew Point Humidity Pressure Visibility Wind Dir Wind Speed Gust Speed Precip Events Conditions
12:53 AM 37.0 °F 33.3 °F 17.1 °F 44% 30.09 in 10.0 mi SSE 4.6 mph - N/A   Clear
1:53 AM 35.1 °F 32.2 °F 17.1 °F 48% 30.08 in 10.0 mi ESE 3.5 mph - N/A   Clear
2:53 AM 33.1 °F - 17.1 °F 52% 30.05 in 10.0 mi Calm Calm - N/A   Clear
3:53 AM 30.9 °F - 17.1 °F 57% 30.05 in 10.0 mi Calm Calm - N/A   Clear
4:53 AM 30.9 °F 27.5 °F 17.1 °F 57% 30.02 in 10.0 mi East 3.5 mph - N/A   Clear
5:53 AM 28.9 °F 25.2 °F 17.1 °F 61% 30.05 in 10.0 mi WSW 3.5 mph - N/A   Clear
6:53 AM 28.0 °F 20.8 °F 17.1 °F 63% 30.06 in 10.0 mi SW 6.9 mph - N/A   Clear
7:53 AM 30.9 °F 23.5 °F 16.0 °F 54% 30.06 in 10.0 mi SW 8.1 mph - N/A   Clear
8:53 AM 37.9 °F 32.7 °F 17.1 °F 43% 30.06 in 10.0 mi SW 6.9 mph - N/A   Clear
9:53 AM 43.0 °F - 17.1 °F 35% 30.05 in 10.0 mi Calm Calm - N/A   Clear
10:53 AM 50.0 °F - 19.0 °F 29% 30.04 in 10.0 mi North 3.5 mph - N/A   Clear
11:53 AM 53.1 °F - 21.9 °F 30% 30.01 in 10.0 mi Calm Calm - N/A   Clear
12:53 PM 57.0 °F - 23.0 °F 27% 29.96 in 10.0 mi SE 4.6 mph - N/A   Clear
1:53 PM 62.1 °F - 27.0 °F 26% 29.91 in 10.0 mi South 4.6 mph - N/A   Clear
2:53 PM 64.9 °F - 28.9 °F 26% 29.87 in 10.0 mi ENE 4.6 mph - N/A   Clear
3:53 PM 66.0 °F - 28.9 °F 25% 29.84 in 10.0 mi Variable 3.5 mph - N/A   Clear
4:53 PM 66.9 °F - 28.9 °F 24% 29.81 in 10.0 mi East 10.4 mph - N/A   Clear
5:53 PM 66.0 °F - 28.9 °F 25% 29.81 in 10.0 mi East 10.4 mph - N/A   Clear
6:53 PM 62.1 °F - 25.0 °F 24% 29.83 in 10.0 mi ESE 12.7 mph - N/A   Clear
7:53 PM 60.1 °F - 26.1 °F 27% 29.83 in 10.0 mi SSE 11.5 mph 20.7 mph N/A   Clear
8:53 PM 57.9 °F - 26.1 °F 30% 29.83 in 10.0 mi SSE 12.7 mph - N/A   Clear
9:53 PM 55.9 °F - 26.1 °F 32% 29.83 in 10.0 mi SSE 13.8 mph - N/A   Clear
10:53 PM 55.0 °F - 27.0 °F 34% 29.82 in 10.0 mi SSE 15.0 mph - N/A   Clear
11:53 PM 54.0 °F - 27.0 °F 35% 29.81 in 10.0 mi SSE 11.5 mph - N/A   Clear